Placerville, CA

12:14 PM PDT on September 19, 2017 (GMT -0700)
Placerville

Weather History for KPVF - January, 2013

Change the Weather History Date:

Thursday, January 31, 2013

  Actual Average Record
Temperature  
Mean Temperature 53 °F -  
Max Temperature 62 °F 55 °F 68 °F (2015)
Min Temperature 44 °F 32 °F 32 °F (2016)
Degree Days  
Heating Degree Days 12    
Growing Degree Days 3 (Base 50)    
Moisture  
Dew Point 34 °F    
Average Humidity 54    
Maximum Humidity 71    
Minimum Humidity 32    
Precipitation  
Precipitation 0.00 in - - ()
Sea Level Pressure  
Sea Level Pressure 30.23 in    
Wind  
Wind Speed 4 mph (SE)    
Max Wind Speed 10 mph    
Max Gust Speed -    
Visibility 10 miles    
Events      
Averages and records for this station are not official NWS values.
T = Trace of Precipitation, MM = Missing Value Source: NWS Daily Summary

Daily Weather History Graph

Daily Weather History Graph

Search for Another Location

Airport or City:

Trip Planner

Search our weather history database for the weather conditions in past years. The results will help you decide how hot, cold, wet, or windy it might be!

Date:

Astronomy

Jan. 31, 2013 Rise Set
Actual Time 7:09 AM PST 5:24 PM PST
Civil Twilight 6:41 AM PST 5:52 PM PST
Nautical Twilight 6:09 AM PST 6:23 PM PST
Astronomical Twilight 5:38 AM PST 6:55 PM PST
Moon 10:27 PM PST (1/31) 9:15 AM PST (1/31)
Length of Visible Light 11h 10m
Length of Day
10h 14m
Waning Gibbous, 79% of the Moon is Illuminated
Jan 31
Waning Gibbous
Feb 3
Last Quarter
Feb 9
New
Feb 17
First Quarter
Feb 25
Full

Hourly Weather History & Observations

Time (PST) Temp. Windchill Dew Point Humidity Pressure Visibility Wind Dir Wind Speed Gust Speed Precip Events Conditions
12:15 AM 50.0 °F - 33.8 °F 54% - - NNW 3.5 mph - N/A   Clear
12:35 AM 48.2 °F - 33.8 °F 58% - - NNW 3.5 mph - N/A   Clear
12:55 AM 50.0 °F - 35.6 °F 58% - - Calm Calm - N/A   Clear
1:15 AM 48.2 °F - 35.6 °F 62% - - NNW 4.6 mph - N/A   Clear
1:35 AM 48.2 °F - 32.0 °F 54% - - NE 3.5 mph - N/A   Clear
1:55 AM 48.2 °F - 28.4 °F 46% - - NNE 4.6 mph - N/A   Clear
2:15 AM 48.2 °F - 28.4 °F 46% - - East 5.8 mph - N/A   Clear
2:35 AM 46.4 °F 42.4 °F 32.0 °F 57% - - East 8.1 mph - N/A   Clear
2:55 AM 46.4 °F 42.9 °F 28.4 °F 50% - - East 6.9 mph - N/A   Clear
3:15 AM 46.4 °F 45.2 °F 28.4 °F 50% - - South 3.5 mph - N/A   Clear
3:35 AM 46.4 °F - 30.2 °F 53% - - Calm Calm - N/A   Clear
3:55 AM 44.6 °F - 32.0 °F 61% - - Calm Calm - N/A   Clear
4:15 AM 44.6 °F - 35.6 °F 71% - - Calm Calm - N/A   Clear
4:35 AM 44.6 °F 43.1 °F 33.8 °F 66% - - East 3.5 mph - N/A   Clear
4:55 AM 44.6 °F - 33.8 °F 66% - - Calm Calm - N/A   Clear
5:15 AM 46.4 °F 45.2 °F 35.6 °F 66% - - East 3.5 mph - N/A   Clear
5:35 AM 46.4 °F - 35.6 °F 66% - - Calm Calm - N/A   Clear
5:55 AM 48.2 °F - 33.8 °F 58% - - Calm Calm - N/A   Clear
6:15 AM 46.4 °F - 32.0 °F 57% - - Calm Calm - N/A   Clear
6:35 AM 44.6 °F - 26.6 °F 49% - - Calm Calm - N/A   Clear
6:55 AM 46.4 °F - 28.4 °F 50% - - Calm Calm - N/A   Clear
7:15 AM 46.4 °F - 32.0 °F 57% - - Calm Calm - N/A   Clear
7:35 AM 46.4 °F - 32.0 °F 57% - - Calm Calm - N/A   Clear
7:55 AM 46.4 °F - 32.0 °F 57% - - Calm Calm - N/A   Clear
8:15 AM 46.4 °F 45.2 °F 28.4 °F 50% - - ESE 3.5 mph - N/A   Clear
8:35 AM 46.4 °F 45.2 °F 30.2 °F 53% - - ESE 3.5 mph - N/A   Clear
8:55 AM 48.2 °F - 32.0 °F 54% - - Calm Calm - N/A   Clear
9:15 AM 50.0 °F - 32.0 °F 50% - - East 3.5 mph - N/A   Clear
9:35 AM 50.0 °F - 32.0 °F 50% - - East 3.5 mph - N/A   Clear
9:55 AM 51.8 °F - 32.0 °F 47% - - East 3.5 mph - N/A   Clear
10:15 AM 53.6 °F - 32.0 °F 44% - - SSW 3.5 mph - N/A   Clear
10:35 AM 55.4 °F - 32.0 °F 41% - - SSW 3.5 mph - N/A   Clear
10:55 AM 55.4 °F - 32.0 °F 41% - - Calm Calm - N/A   Clear
11:15 AM 55.4 °F - 32.0 °F 41% - - Calm Calm - N/A   Clear
11:35 AM 57.2 °F - 33.8 °F 41% - - South 3.5 mph - N/A   Clear
11:55 AM 59.0 °F - 32.0 °F 36% - - SSW 3.5 mph - N/A   Clear
12:15 PM 59.0 °F - 32.0 °F 36% - - SSE 3.5 mph - N/A   Clear
12:35 PM 59.0 °F - 35.6 °F 42% - - South 3.5 mph - N/A   Clear
12:55 PM 60.8 °F - 35.6 °F 39% - - SW 4.6 mph - N/A   Clear
1:15 PM 60.8 °F - 32.0 °F 34% - - South 5.8 mph - N/A   Clear
1:55 PM 62.6 °F - 32.0 °F 32% - - SW 4.6 mph - N/A   Clear
2:15 PM 62.6 °F - 35.6 °F 37% 30.24 in 10.0 mi West 4.6 mph - N/A   Clear
2:35 PM 62.6 °F - 37.4 °F 39% 30.24 in 10.0 mi West 6.9 mph - N/A   Clear
2:55 PM 60.8 °F - 39.2 °F 45% 30.24 in 10.0 mi SW 6.9 mph - N/A   Clear
3:15 PM 60.8 °F - 39.2 °F 45% 30.24 in 10.0 mi SW 6.9 mph - N/A   Clear
3:35 PM 59.0 °F - 41.0 °F 51% 30.24 in 10.0 mi SW 6.9 mph - N/A   Clear
3:55 PM 59.0 °F - 41.0 °F 51% 30.24 in 10.0 mi WSW 5.8 mph - N/A   Clear
4:15 PM 57.2 °F - 41.0 °F 55% 30.24 in 10.0 mi WSW 3.5 mph - N/A   Clear
4:35 PM 57.2 °F - 41.0 °F 55% 30.24 in 10.0 mi WSW 4.6 mph - N/A   Clear
4:55 PM 55.4 °F - 41.0 °F 58% 30.24 in 10.0 mi SW 3.5 mph - N/A   Clear
5:15 PM 53.6 °F - 39.2 °F 58% 30.23 in 10.0 mi WSW 3.5 mph - N/A   Clear
5:35 PM 53.6 °F - 39.2 °F 58% 30.24 in 10.0 mi Calm Calm - N/A   Clear
6:15 PM 50.0 °F - 41.0 °F 71% 30.24 in 10.0 mi North 5.8 mph - N/A   Clear
6:35 PM 50.0 °F - 41.0 °F 71% 30.24 in 10.0 mi North 4.6 mph - N/A   Clear
6:55 PM 50.0 °F - 41.0 °F 71% 30.24 in 10.0 mi NNE 4.6 mph - N/A   Clear
7:15 PM 50.0 °F - 41.0 °F 71% 30.24 in 10.0 mi NNE 6.9 mph - N/A   Clear
7:35 PM 50.0 °F - 41.0 °F 71% 30.23 in 10.0 mi ENE 9.2 mph - N/A   Clear
8:15 PM 50.0 °F - 39.2 °F 66% 30.23 in 10.0 mi East 10.4 mph - N/A   Clear
8:35 PM 50.0 °F - 39.2 °F 66% 30.23 in 10.0 mi East 9.2 mph - N/A   Clear
8:55 PM 50.0 °F - 37.4 °F 62% 30.22 in 10.0 mi ESE 9.2 mph - N/A   Clear
9:15 PM 50.0 °F - 35.6 °F 58% 30.23 in 10.0 mi East 6.9 mph - N/A   Clear
9:35 PM 48.2 °F - 35.6 °F 62% 30.23 in 10.0 mi East 6.9 mph - N/A   Clear
9:55 PM 48.2 °F - 35.6 °F 62% 30.22 in 10.0 mi East 6.9 mph - N/A   Clear
10:15 PM 50.0 °F - 35.6 °F 58% 30.22 in 10.0 mi East 6.9 mph - N/A   Clear
10:35 PM 50.0 °F - 32.0 °F 50% 30.22 in 10.0 mi East 5.8 mph - N/A   Clear
10:55 PM 50.0 °F - 32.0 °F 50% 30.22 in 10.0 mi East 6.9 mph - N/A   Clear
11:15 PM 48.2 °F - 32.0 °F 54% 30.22 in 10.0 mi East 5.8 mph - N/A   Clear
11:35 PM 48.2 °F - 32.0 °F 54% 30.22 in 10.0 mi ESE 8.1 mph - N/A   Clear
11:55 PM 46.4 °F 42.4 °F 32.0 °F 57% 30.22 in 10.0 mi East 8.1 mph - N/A   Clear